Regional Weather Roundup
Issued by NWS

Home | Current Version | Previous Version | Text Only | Print | Product List | Glossary Off
Versions: 1 2 3 4 5 6 7 8 9 10 11 12 13 14 15 16 17 18 19 20 21 22 23 24 25 26 27 28 29 30 31 32 33 34 35 36 37 38 39 40 41 42 43 44 45 46 47 48 49 50

000
ASUS43 KBIS 262301
RWRND

NORTH DAKOTA REGIONAL WEATHER ROUNDUP
NATIONAL WEATHER SERVICE BISMARCK ND
500 PM CST THU FEB 26 2015

NOTE: "FAIR" INDICATES FEW OR NO CLOUDS BELOW 12,000 FEET WITH NO
SIGNIFICANT WEATHER AND/OR OBSTRUCTIONS TO VISIBILITY.


NDZ001>003-009>011-017-270000-
NORTHWEST NORTH DAKOTA

CITY           SKY/WX    TMP DP  RH WIND       PRES   REMARKS
WILLISTON      SUNNY      9  -5  53 NW7       30.53F WCI  -2
MINOT          SUNNY      4  -7  60 NW12      30.52F WCI -12
MINOT AFB      SUNNY      2  -5  69 NW12      30.52F WCI -14
$$

NDZ018>021-031>035-040>046-270000-
SOUTHWEST NORTH DAKOTA

CITY           SKY/WX    TMP DP  RH WIND       PRES   REMARKS
BISMARCK       SUNNY      9  -5  53 N12       30.53S WCI  -6
DICKINSON      SUNNY     10  -3  55 N6        30.43S WCI   0
GARRISON         N/A      5  -4  66 NW14      30.51S WCI -12
HETTINGER ARPT SUNNY     12  -3  51 N6        30.44S WCI   3
$$

NDZ004>008-012>016-024-026-027-054-270000-
NORTHEAST NORTH DAKOTA

CITY           SKY/WX    TMP DP  RH WIND       PRES   REMARKS
GRAND FORKS    PTCLDY     8  -5  55 NW10      30.52S WCI  -6
GRND FRKS AFB  SUNNY      8  -7  52 NW13      30.52S WCI  -8
DEVILS LAKE    SUNNY    N/A N/A N/A MISG        N/A
$$

NDZ022-023-025-028>030-036>039-047>053-270000-
SOUTHEAST NORTH DAKOTA

CITY           SKY/WX    TMP DP  RH WIND       PRES   REMARKS
FARGO          FAIR       7  -4  60 NW10      30.53S WCI  -8
JAMESTOWN      SUNNY      3  -8  60 NW13      30.50S WCI -14
$$



USA.gov is the U.S. government's official web portal to all federal, state and local government web resources and services.